Weather History for Lexington, KY

Change the Weather History Date:

Thursday, February 14, 2013

  Actual Average Record
Temperature  
Mean Temperature 42 °F 36 °F  
Max Temperature 54 °F 45 °F 70 °F (1918)
Min Temperature 29 °F 28 °F -7 °F (1905)
Degree Days  
Heating Degree Days 23 28  
Month to date heating degree days 408 418  
Since 1 July heating degree days 3087 3201  
Cooling Degree Days 0 0  
Month to date cooling degree days 0 0  
Year to date cooling degree days 0 0  
Moisture  
Dew Point 32 °F    
Average Humidity 73    
Maximum Humidity 100    
Minimum Humidity 46    
Precipitation  
Precipitation 0.00 in 0.11 in 2.28 in (1908)
Month to date precipitation 0.54 1.58  
Year to date precipitation 5.00 4.78  
Snow  
Snow 0.00 in 0.20 in 5.00 in (1970)
Month to date snowfall 2.6 2.7  
Since 1 July snowfall 8.5 9.4  
Snow Depth 0.00 in    
Sea Level Pressure  
Sea Level Pressure 29.96 in    
Wind  
Wind Speed 11 mph (SSW)    
Max Wind Speed 24 mph    
Max Gust Speed 29 mph    
Visibility 8 miles    
Events      
T = Trace of Precipitation, MM = Missing Value Source: NWS Daily Summary

Daily Weather History Graph

Daily Weather History Graph

Search for Another Location

Airport:

Trip Planner

Search our weather history database for the weather conditions in past years. The results will help you decide how hot, cold, wet, or windy it might be!

Date:

Astronomy

Feb. 14, 2013 Rise Set
Actual Time 7:29 AM EST 6:16 PM EST
Civil Twilight 7:02 AM EST 6:43 PM EST
Nautical Twilight 6:31 AM EST 7:14 PM EST
Astronomical Twilight 6:00 AM EST 7:44 PM EST
Moon 9:36 AM EST (2/14) 11:12 PM EST (2/14)
Length of Visible Light 11h 41m
Length of Day
10h 47m
Waxing Crescent, 21% of the Moon is Illuminated
Feb 14
Waxing Crescent
Feb 17
First Quarter
Feb 25
Full
Mar 4
Last Quarter
Mar 11
New

Hourly Weather History & Observations

Time (EST) Temp. Windchill Dew Point Humidity Pressure Visibility Wind Dir Wind Speed Gust Speed Precip Events Conditions
12:54 AM 30.0 °F 22.4 °F 28.0 °F 92% 29.98 in 8.0 mi SSW 8.1 mph - N/A   Clear
1:54 AM 30.9 °F 22.2 °F 30.0 °F 96% 29.97 in 7.0 mi SSW 10.4 mph - N/A   Clear
2:54 AM 30.9 °F 22.8 °F 28.9 °F 92% 29.97 in 7.0 mi South 9.2 mph - N/A   Clear
3:54 AM 30.9 °F 22.2 °F 28.9 °F 92% 29.96 in 6.0 mi SSW 10.4 mph - N/A   Clear
4:54 AM 30.9 °F 23.5 °F 30.0 °F 96% 29.96 in 7.0 mi South 8.1 mph - N/A   Clear
5:54 AM 30.9 °F 22.8 °F 30.0 °F 96% 29.96 in 6.0 mi South 9.2 mph - N/A   Overcast
6:21 AM 32.0 °F 24.8 °F 30.2 °F 93% 29.94 in 6.0 mi South 8.1 mph - N/A   Overcast
6:49 AM 32.0 °F 25.6 °F 30.2 °F 93% 29.94 in 6.0 mi South 6.9 mph - N/A   Overcast
6:54 AM 32.0 °F 24.8 °F 30.9 °F 96% 29.96 in 6.0 mi South 8.1 mph - N/A   Overcast
7:54 AM 32.0 °F 24.8 °F 32.0 °F 100% 29.96 in 5.0 mi South 8.1 mph - N/A   Overcast
8:54 AM 33.1 °F 26.1 °F 32.0 °F 96% 29.98 in 6.0 mi South 8.1 mph - N/A   Overcast
9:54 AM 36.0 °F 27.5 °F 34.0 °F 93% 29.98 in 9.0 mi SSW 12.7 mph - N/A   Overcast
10:54 AM 39.0 °F 30.6 °F 36.0 °F 89% 29.98 in 10.0 mi SSW 15.0 mph 23.0 mph N/A   Overcast
11:37 AM 42.8 °F 34.5 °F 37.4 °F 81% 29.94 in 10.0 mi SSW 18.4 mph 21.9 mph N/A   Scattered Clouds
11:54 AM 44.1 °F 36.8 °F 37.9 °F 79% 29.95 in 10.0 mi SSW 16.1 mph - N/A   Clear
12:54 PM 48.0 °F - 37.0 °F 66% 29.93 in 10.0 mi SW 18.4 mph 27.6 mph N/A   Partly Cloudy
1:54 PM 51.1 °F - 35.1 °F 54% 29.91 in 10.0 mi WSW 19.6 mph 27.6 mph N/A   Clear
2:54 PM 53.1 °F - 35.1 °F 50% 29.89 in 10.0 mi SW 19.6 mph 26.5 mph N/A   Partly Cloudy
3:54 PM 54.0 °F - 33.1 °F 45% 29.90 in 10.0 mi WSW 18.4 mph 26.5 mph N/A   Clear
4:54 PM 53.1 °F - 33.1 °F 47% 29.91 in 10.0 mi WSW 11.5 mph - N/A   Clear
5:54 PM 52.0 °F - 32.0 °F 47% 29.93 in 10.0 mi WSW 13.8 mph 21.9 mph N/A   Mostly Cloudy
6:54 PM 46.9 °F - 32.0 °F 56% 29.96 in 10.0 mi SW 6.9 mph - N/A   Scattered Clouds
7:54 PM 45.0 °F 42.6 °F 32.0 °F 60% 29.97 in 10.0 mi WSW 4.6 mph - N/A   Clear
8:54 PM 43.0 °F 39.5 °F 32.0 °F 65% 29.98 in 10.0 mi SW 5.8 mph - N/A   Clear
9:54 PM 43.0 °F 41.3 °F 30.9 °F 62% 29.99 in 10.0 mi WSW 3.5 mph - N/A   Clear
10:54 PM 41.0 °F 37.1 °F 30.9 °F 67% 30.00 in 10.0 mi SSW 5.8 mph - N/A   Clear
11:54 PM 39.9 °F 36.7 °F 30.9 °F 70% 30.00 in 10.0 mi West 4.6 mph - N/A   Clear